Regional Weather Roundup
Issued by NWS

Current Version |  Previous Version |  Text Only |  Print | Product List |  Glossary On
Versions: 1 2 3 4 5 6 7 8 9 10 11 12 13 14 15 16 17 18 19 20 21 22 23 24 25 26 27 28 29 30 31 32 33 34 35 36 37 38 39 40 41 42 43 44 45 46 47 48 49 50
506
ASUS43 KLSX 250410
RWRMO

WEATHER SUMMARY FOR MISSOURI
NATIONAL WEATHER SERVICE SPRINGFIELD MO
1100 PM CDT FRI MAY 24 2024

NOTE: "FAIR" INDICATES FEW OR NO CLOUDS BELOW 12,000 FEET WITH NO
       SIGNIFICANT WEATHER AND/OR OBSTRUCTIONS TO VISIBILITY.
       CURRENT SKY AND/OR WEATHER CONDITIONS ARE NOT AVAILABLE FOR
       CHILLICOTHE AND FARMINGTON.

MOZ001>031-035>038-043-044-053-054-250500-
...NORTHERN AND WESTERN MISSOURI...

CITY           SKY/WX    TMP DP  RH WIND       PRES   REMARKS
KANSAS CTY INT CLEAR     60  50  69 N7        29.87R
KANSAS C DTWN  CLEAR     66  51  58 N9        29.87R
LEE`S SUMMIT   CLEAR     66  51  58 N5        29.88R
ST JOSEPH      CLEAR     58  53  84 N5        29.88R
CHILLICOTHE      N/A     59  56  89 CALM      29.88R
KIRKSVILLE     CLEAR     60  52  74 NW7       29.85R

$$
MOZ066>068-077>081-088>096-101>105-250500-
...SOUTHWEST MISSOURI...

CITY           SKY/WX    TMP DP  RH WIND       PRES   REMARKS
SPRINGFIELD    MOCLDY    68  63  84 CALM      29.84R
JOPLIN         PTCLDY    64  58  80 N5        29.85R

$$
MOZ032>034-039>042-045>050-055>058-069>072-250500-
...CENTRAL MISSOURI...

CITY           SKY/WX    TMP DP  RH WIND       PRES   REMARKS
COLUMBIA       CLEAR     67  61  81 N6        29.82R
JEFFERSON CITY CLEAR     70  63  78 N6        29.81R
ROLLA          CLEAR     68  65  90 N6        29.83R
SEDALIA        CLEAR     66  53  63 N9        29.84R
WHITEMAN AFB   CLEAR     63  52  67 N8        29.83R
OSAGE BEACH    CLEAR     70  62  76 CALM      29.84R

$$
MOZ051-052-059>065-250500-
...EAST CENTRAL MISSOURI...

CITY           SKY/WX    TMP DP  RH WIND       PRES   REMARKS
ST LOUIS INTL  CLOUDY    71  64  78 SE13      29.77F
SPIRIT OF STL  PTCLDY    67  67 100 SE3       29.77F
ST CHARLES     PTCLDY    67  64  90 E6        29.76F

$$
MOZ072>076-082>087-097>100-106>115-250500-
...SOUTH CENTRAL AND SOUTHEAST MISSOURI...

CITY           SKY/WX    TMP DP  RH WIND       PRES   REMARKS
CAPE GIRARDEAU PTCLDY    72  68  87 S6        29.78F
FARMINGTON     CLOUDY    71  67  87 S7        29.82R
POPLAR BLUFF   MOCLDY    75  71  87 CALM      29.78S
WEST PLAINS    MOCLDY    75  69  81 SW6       29.81R

$$